KA8OAD-1 Weather Reports


Display with metric or nautical units.
time (UTC)temp
F
wind
direction
speed
MPH
gust
MPH
rain 1hr
in
rain 24hr
in
rain mn
in
humidity
%
barometer
mb
20260902223005 90 248 1.0 5.0 0.00 0.00 0.00 58 1013.4
20260902222504 90 243 2.0 5.0 0.00 0.00 0.00 57 1013.2
20260902222004 90 243 2.0 5.0 0.00 0.00 0.00 57 1013.2
20260902221504 90 237 3.0 5.0 0.00 0.00 0.00 56 1013.2
20260902221005 90 233 3.0 8.0 0.00 0.00 0.00 56 1013.2
20260902220503 90 238 3.0 8.0 0.00 0.00 0.00 56 1013.1
20260902220004 91 242 3.0 13.0 0.00 0.00 0.00 56 1013.2
20260902215504 91 246 2.0 13.0 0.00 0.00 0.00 56 1013.2
20260902215004 91 250 2.0 8.0 0.00 0.00 0.00 57 1013.3
20260902214504 91 244 2.0 10.0 0.00 0.00 0.00 57 1013.3
20260902214017 91 242 3.0 13.0 0.00 0.00 0.00 57 1013.2
20260902213505 91 236 3.0 13.0 0.00 0.00 0.00 57 1013.3
20260902213007 91 222 2.0 8.0 0.00 0.00 0.00 59 1013.4
20260902212504 91 217 2.0 6.0 0.00 0.00 0.00 58 1013.3
20260902212004 91 223 3.0 8.0 0.00 0.00 0.00 59 1013.4
20260902211504 91 229 3.0 8.0 0.00 0.00 0.00 59 1013.5
20260902211005 91 230 2.0 9.0 0.00 0.00 0.00 59 1013.5
20260902210504 91 223 2.0 10.0 0.00 0.00 0.00 59 1013.6
20260902210004 91 214 2.0 10.0 0.00 0.00 0.00 59 1013.7
20260902205504 91 219 3.0 7.0 0.00 0.00 0.00 59 1013.8
20260902205004 92 228 3.0 10.0 0.00 0.00 0.00 60 1013.7
20260902204504 92 230 4.0 10.0 0.00 0.00 0.00 59 1013.7
20260902204005 92 229 4.0 9.0 0.00 0.00 0.00 59 1013.8
20260902203504 92 233 2.0 8.0 0.00 0.00 0.00 60 1013.9
20260902203004 92 229 3.0 10.0 0.00 0.00 0.00 60 1013.8
20260902202504 92 221 3.0 10.0 0.00 0.00 0.00 58 1013.9
20260902202004 92 218 3.0 8.0 0.00 0.00 0.00 58 1013.9
20260902201504 93 213 3.0 8.0 0.00 0.00 0.00 58 1014.0
20260902201005 93 225 2.0 9.0 0.00 0.00 0.00 58 1014.2
20260902200503 93 236 3.0 9.0 0.00 0.00 0.00 57 1014.2
20260902195503 94 230 3.0 10.0 0.00 0.00 0.00 55 1014.2
20260902195004 94 218 2.0 8.0 0.00 0.00 0.00 56 1014.2
20260902194005 95 240 3.0 10.0 0.00 0.00 0.00 55 1014.3
20260902193504 95 239 3.0 10.0 0.00 0.00 0.00 55 1014.2
20260902193004 95 224 2.0 9.0 0.00 0.00 0.00 56 1014.3
20260902192504 95 217 3.0 8.0 0.00 0.00 0.00 54 1014.3
20260902192004 95 216 3.0 8.0 0.00 0.00 0.00 53 1014.5
20260902191504 96 231 2.0 4.0 0.00 0.00 0.00 53 1014.5
20260902191004 96 227 2.0 7.0 0.00 0.00 0.00 52 1014.6
20260902190504 96 232 2.0 7.0 0.00 0.00 0.00 52 1014.6
20260902190004 96 229 2.0 6.0 0.00 0.00 0.00 52 1014.7
20260902185504 96 215 2.0 6.0 0.00 0.00 0.00 53 1014.8
20260902185004 97 205 2.0 6.0 0.00 0.00 0.00 52 1014.7
20260902184504 97 217 2.0 6.0 0.00 0.00 0.00 51 1014.8
20260902184005 97 236 2.0 4.0 0.00 0.00 0.00 50 1014.9
20260902183503 97 265 2.0 5.0 0.00 0.00 0.00 50 1014.9
20260902183005 97 248 2.0 7.0 0.00 0.00 0.00 52 1015.0
20260902182504 97 230 1.0 7.0 0.00 0.00 0.00 52 1015.0
20260902182004 97 234 1.0 4.0 0.00 0.00 0.00 53 1015.1
20260902181005 97 213 2.0 5.0 0.00 0.00 0.00 50 1015.1
20260902180503 98 211 2.0 6.0 0.00 0.00 0.00 47 1015.1
20260902180007 99 227 2.0 6.0 0.00 0.00 0.00 49 1015.1
20260902175503 99 264 1.0 5.0 0.00 0.00 0.00 50 1015.3
20260902174503 98 258 1.0 4.0 0.00 0.00 0.00 49 1015.5
20260902173503 98 213 1.0 7.0 0.00 0.00 0.00 51 1015.6
20260902173004 98 205 2.0 7.0 0.00 0.00 0.00 50 1015.7
20260902172504 98 219 2.0 6.0 0.00 0.00 0.00 51 1015.8
20260902172005 98 232 1.0 6.0 0.00 0.00 0.00 51 1015.7
20260902171504 97 225 1.0 5.0 0.00 0.00 0.00 52 1015.9
20260902171005 97 155 1.0 4.0 0.00 0.00 0.00 53 1015.9
20260902170504 96 149 1.0 3.0 0.00 0.00 0.00 55 1016.0
20260902170004 96 194 1.0 6.0 0.00 0.00 0.00 55 1016.0
20260902165503 95 229 2.0 6.0 0.00 0.00 0.00 56 1015.9
20260902165005 95 252 2.0 5.0 0.00 0.00 0.00 57 1016.0
20260902164504 94 239 2.0 5.0 0.00 0.00 0.00 58 1016.0
20260902163504 93 234 1.0 5.0 0.00 0.00 0.00 60 1016.1
20260902163005 92 216 1.0 4.0 0.00 0.00 0.00 61 1016.1
20260902162504 91 202 1.0 5.0 0.00 0.00 0.00 62 1016.2
20260902162005 91 227 1.0 5.0 0.00 0.00 0.00 63 1016.1
20260902161504 90 250 2.0 7.0 0.00 0.00 0.00 65 1016.3
20260902161005 89 255 1.0 7.0 0.00 0.00 0.00 66 1016.3
20260902160006 87 223 2.0 6.0 0.00 0.00 0.00 69 1016.3
20260902155504 87 229 1.0 5.0 0.00 0.00 0.00 69 1016.4
20260902154504 86 232 1.0 7.0 0.00 0.00 0.00 70 1016.5
20260902154004 86 229 1.0 5.0 0.00 0.00 0.00 70 1016.6
20260902153504 86 229 1.0 5.0 0.00 0.00 0.00 70 1016.5
20260902153004 86 229 2.0 5.0 0.00 0.00 0.00 70 1016.5
20260902152504 86 229 3.0 5.0 0.00 0.00 0.00 69 1016.5
20260902152004 85 225 2.0 5.0 0.00 0.00 0.00 71 1016.5
20260902151503 85 217 1.0 3.0 0.00 0.00 0.00 72 1016.5
20260902151004 85 227 1.0 4.0 0.00 0.00 0.00 72 1016.5
20260902150503 84 242 2.0 6.0 0.00 0.00 0.00 73 1016.5
20260902150004 84 236 2.0 6.0 0.00 0.00 0.00 74 1016.4
20260902145004 83 226 2.0 6.0 0.00 0.00 0.00 77 1016.4
20260902144504 82 230 2.0 6.0 0.00 0.00 0.00 77 1016.4
20260902144004 82 233 2.0 5.0 0.00 0.00 0.00 78 1016.2
20260902143504 81 233 2.0 5.0 0.00 0.00 0.00 80 1016.2
20260902143004 81 237 2.0 5.0 0.00 0.00 0.00 82 1016.2
20260902142005 80 260 2.0 4.0 0.00 0.00 0.00 84 1016.1
20260902141503 79 265 1.0 4.0 0.00 0.00 0.00 85 1016.0
20260902140504 78 315 1.0 3.0 0.00 0.00 0.00 87 1016.1
20260902135504 78 242 2.0 5.0 0.00 0.00 0.00 88 1016.1
20260902135005 77 238 2.0 5.0 0.00 0.00 0.00 89 1016.1
20260902134504 77 235 2.0 5.0 0.00 0.00 0.00 90 1016.2
20260902134004 76 237 2.0 5.0 0.00 0.00 0.00 90 1016.1
20260902133504 76 235 2.0 4.0 0.00 0.00 0.00 91 1016.1
20260902133004 76 232 1.0 4.0 0.00 0.00 0.00 92 1016.0
20260902132504 75 233 1.0 4.0 0.00 0.00 0.00 92 1016.2
20260902132004 75 231 1.0 4.0 0.00 0.00 0.00 92 1016.2
20260902131504 75 226 0.0 3.0 0.00 0.00 0.00 92 1016.2
20260902130005 75 0 0.0 0.0 0.00 0.00 0.00 92 1016.2
20260902125503 74 0 0.0 0.0 0.00 0.00 0.00 92 1016.2
20260902125004 74 0 0.0 0.0 0.00 0.00 0.00 93 1016.0
20260902124504 74 0 0.0 0.0 0.00 0.00 0.00 92 1016.0
20260902124005 74 0 0.0 0.0 0.00 0.00 0.00 92 1016.0
20260902123504 74 0 0.0 0.0 0.00 0.00 0.00 92 1016.1
20260902123005 74 0 0.0 0.0 0.00 0.00 0.00 92 1016.1
20260902121504 73 0 0.0 0.0 0.00 0.00 0.00 92 1015.9
20260902121004 73 0 0.0 0.0 0.00 0.00 0.00 92 1016.0
20260902120504 72 0 0.0 0.0 0.00 0.00 0.00 92 1016.0
20260902120005 72 0 0.0 0.0 0.00 0.00 0.00 91 1015.8
20260902115005 72 0 0.0 0.0 0.00 0.00 0.00 91 1015.5
20260902114504 72 0 0.0 0.0 0.00 0.00 0.00 91 1015.5
20260902113503 72 0 0.0 0.0 0.00 0.00 0.00 91 1015.4
20260902113004 72 0 0.0 0.0 0.00 0.00 0.00 91 1015.4
20260902112504 72 0 0.0 0.0 0.00 0.00 0.00 91 1015.4
20260902112005 72 0 0.0 0.0 0.00 0.00 0.00 91 1015.5
20260902111503 73 0 0.0 0.0 0.00 0.00 0.00 91 1015.3
20260902111004 73 0 0.0 0.0 0.00 0.00 0.00 91 1015.3
20260902110504 73 0 0.0 0.0 0.00 0.00 0.00 91 1015.4
20260902110007 73 0 0.0 0.0 0.00 0.00 0.00 91 1015.3
20260902105004 73 0 0.0 0.0 0.00 0.00 0.00 91 1015.2
20260902104504 73 0 0.0 0.0 0.00 0.00 0.00 91 1015.3
20260902104004 73 0 0.0 0.0 0.00 0.00 0.00 91 1015.3
20260902103504 73 0 0.0 0.0 0.00 0.00 0.00 91 1015.3
20260902103004 73 0 0.0 0.0 0.00 0.00 0.00 91 1015.1
20260902102504 73 0 0.0 0.0 0.00 0.00 0.00 91 1015.2
20260902102004 73 0 0.0 0.0 0.00 0.00 0.00 91 1015.2
20260902101505 73 0 0.0 0.0 0.00 0.00 0.00 91 1015.0
20260902101005 73 0 0.0 0.0 0.00 0.00 0.00 91 1015.0
20260902100005 73 0 0.0 0.0 0.00 0.00 0.00 91 1015.0
20260902095504 73 0 0.0 0.0 0.00 0.00 0.00 91 1015.2
20260902095004 73 0 0.0 0.0 0.00 0.00 0.00 91 1015.2
20260902094503 73 0 0.0 0.0 0.00 0.00 0.00 91 1015.2
20260902094005 73 0 0.0 0.0 0.00 0.00 0.00 91 1015.3
20260902093503 73 0 0.0 0.0 0.00 0.00 0.00 91 1015.3
20260902093004 74 0 0.0 0.0 0.00 0.00 0.00 91 1015.3
20260902092504 74 0 0.0 0.0 0.00 0.00 0.00 91 1015.4
20260902092004 74 0 0.0 0.0 0.00 0.00 0.00 91 1015.5
20260902091004 74 0 0.0 0.0 0.00 0.00 0.00 91 1015.5
20260902090005 74 0 0.0 0.0 0.00 0.00 0.00 91 1015.5
20260902085504 74 0 0.0 0.0 0.00 0.00 0.00 90 1015.5
20260902085005 74 0 0.0 0.0 0.00 0.00 0.00 90 1015.4
20260902084504 74 0 0.0 0.0 0.00 0.00 0.00 90 1015.4
20260902084004 74 0 0.0 0.0 0.00 0.00 0.00 90 1015.4
20260902083005 74 0 0.0 0.0 0.00 0.00 0.00 90 1015.3
20260902082503 74 0 0.0 0.0 0.00 0.00 0.00 90 1015.3
20260902082004 74 0 0.0 0.0 0.00 0.00 0.00 90 1015.2
20260902081504 74 0 0.0 0.0 0.00 0.00 0.00 90 1015.3
20260902080503 74 0 0.0 0.0 0.00 0.00 0.00 90 1015.3
20260902080005 74 0 0.0 0.0 0.00 0.00 0.00 90 1015.3
20260902075503 74 0 0.0 0.0 0.00 0.00 0.00 90 1015.2
20260902075004 74 0 0.0 0.0 0.00 0.00 0.00 90 1015.2
20260902074504 74 0 0.0 0.0 0.00 0.00 0.00 90 1015.1
20260902074004 74 0 0.0 0.0 0.00 0.00 0.00 90 1015.2
20260902073504 74 0 0.0 0.0 0.00 0.00 0.00 90 1015.2
20260902073004 74 0 0.0 0.0 0.00 0.00 0.00 90 1015.3
20260902072504 74 0 0.0 0.0 0.00 0.00 0.00 90 1015.3
20260902072004 74 0 0.0 0.0 0.00 0.00 0.00 90 1015.2
20260902071504 74 0 0.0 0.0 0.00 0.00 0.00 90 1015.2
20260902070006 74 0 0.0 0.0 0.00 0.00 0.00 90 1015.3
20260902065504 74 0 0.0 0.0 0.00 0.00 0.00 90 1015.4
20260902064504 74 0 0.0 0.0 0.00 0.00 0.00 89 1015.5
20260902064005 74 0 0.0 0.0 0.00 0.00 0.00 88 1015.6
20260902063503 74 0 0.0 0.0 0.00 0.00 0.00 88 1015.7
20260902063005 74 0 0.0 0.0 0.00 0.00 0.00 88 1015.7
20260902062005 74 0 0.0 0.0 0.00 0.00 0.00 88 1015.6
20260902060504 74 0 0.0 0.0 0.00 0.00 0.00 88 1015.6
20260902060004 74 0 0.0 0.0 0.00 0.00 0.00 88 1015.6
20260902055504 74 0 0.0 0.0 0.00 0.00 0.00 88 1015.6
20260902055005 74 0 0.0 0.0 0.00 0.00 0.00 88 1015.6
20260902054504 75 0 0.0 0.0 0.00 0.00 0.00 88 1015.5
20260902053503 75 0 0.0 0.0 0.00 0.00 0.00 87 1015.6
20260902052004 75 0 0.0 0.0 0.00 0.00 0.00 87 1015.6
20260902051504 75 0 0.0 0.0 0.00 0.00 0.00 87 1015.6
20260902051004 75 0 0.0 0.0 0.00 0.00 0.00 87 1015.5
20260902050505 75 0 0.0 0.0 0.00 0.00 0.00 87 1015.5
20260902050007 75 0 0.0 0.0 0.00 0.00 0.00 87 1015.4
20260902045503 75 0 0.0 0.0 0.00 0.00 0.00 87 1015.4
20260902045004 75 0 0.0 0.0 0.00 0.00 0.00 87 1015.3
20260902044005 76 0 0.0 0.0 0.00 0.00 0.00 87 1015.1
20260902043503 76 0 0.0 0.0 0.00 0.00 0.00 87 1015.2
20260902043005 76 0 0.0 0.0 0.00 0.00 0.00 87 1015.2
20260902042503 76 0 0.0 0.0 0.00 0.00 0.00 86 1015.2
20260902042004 76 0 0.0 0.0 0.00 0.00 0.00 86 1015.2
20260902041504 76 0 0.0 0.0 0.00 0.00 0.00 86 1015.2
20260902041004 76 0 0.0 0.0 0.00 0.00 0.00 86 1015.2
20260902040504 76 0 0.0 0.0 0.00 0.00 0.00 86 1015.2
20260902040008 76 0 0.0 0.0 0.00 0.00 0.00 85 1015.2
20260902035005 76 0 0.0 0.0 0.00 0.00 0.00 85 1015.3
20260902034504 76 0 0.0 0.0 0.00 0.00 0.00 85 1015.2
20260902034005 76 0 0.0 0.0 0.00 0.00 0.00 84 1015.1
20260902033504 76 0 0.0 0.0 0.00 0.00 0.00 84 1015.2
20260902033004 76 0 0.0 0.0 0.00 0.00 0.00 84 1015.2
20260902032504 76 0 0.0 0.0 0.00 0.00 0.00 84 1015.2
20260902032004 77 0 0.0 0.0 0.00 0.00 0.00 84 1015.2
20260902031005 77 0 0.0 0.0 0.00 0.00 0.00 84 1015.2
20260902030503 77 0 0.0 0.0 0.00 0.00 0.00 84 1015.2
20260902030005 77 0 0.0 0.0 0.00 0.00 0.00 84 1015.2
20260902025503 77 0 0.0 0.0 0.00 0.00 0.00 84 1015.2
20260902025005 77 0 0.0 0.0 0.00 0.00 0.00 83 1015.2
20260902024504 77 0 0.0 0.0 0.00 0.00 0.00 83 1015.2
20260902024004 78 0 0.0 0.0 0.00 0.00 0.00 83 1015.1
20260902023504 78 0 0.0 0.0 0.00 0.00 0.00 82 1015.0
20260902023004 78 0 0.0 0.0 0.00 0.00 0.00 82 1015.0
20260902022504 78 0 0.0 0.0 0.00 0.00 0.00 82 1014.8
20260902022005 78 0 0.0 0.0 0.00 0.00 0.00 81 1014.8
20260902021503 78 0 0.0 0.0 0.00 0.00 0.00 81 1014.9
20260902021005 78 0 0.0 0.0 0.00 0.00 0.00 80 1014.9
20260902015504 79 0 0.0 0.0 0.00 0.00 0.00 79 1014.8
20260902015004 79 0 0.0 0.0 0.00 0.00 0.00 78 1014.8
20260902014504 80 0 0.0 0.0 0.00 0.00 0.00 77 1014.8
20260902014005 80 0 0.0 0.0 0.00 0.00 0.00 77 1014.7
20260902012004 80 0 0.0 0.0 0.00 0.00 0.00 75 1014.6
20260902011005 81 0 0.0 0.0 0.00 0.00 0.00 73 1014.5
20260902010503 81 0 0.0 0.0 0.00 0.00 0.00 73 1014.4
20260902005503 82 0 0.0 0.0 0.00 0.00 0.00 71 1014.4
20260902005004 82 0 0.0 0.0 0.00 0.00 0.00 71 1014.4
20260902004504 82 0 0.0 0.0 0.00 0.00 0.00 71 1014.3
20260902004004 82 0 0.0 0.0 0.00 0.00 0.00 70 1014.3
20260902003503 82 0 0.0 0.0 0.00 0.00 0.00 70 1014.2
20260902003005 82 0 0.0 0.0 0.00 0.00 0.00 70 1014.1
20260902002504 83 0 0.0 0.0 0.00 0.00 0.00 69 1014.1
20260902002005 83 0 0.0 0.0 0.00 0.00 0.00 69 1014.0
20260902001503 83 0 0.0 0.0 0.00 0.00 0.00 69 1014.0
20260902001005 83 0 0.0 0.0 0.00 0.00 0.00 69 1014.0
20260902000503 83 241 0.0 1.0 0.00 0.00 0.00 69 1014.3
20260902000005 83 243 1.0 3.0 0.00 0.00 0.00 69 1014.4
20260901235005 84 252 0.0 3.0 0.00 0.00 0.00 69 1014.5
20260901234504 84 256 1.0 3.0 0.00 0.00 0.00 68 1014.3
20260901234004 84 257 2.0 4.0 0.00 0.00 0.00 68 1014.4
20260901233504 84 251 2.0 5.0 0.00 0.00 0.00 68 1014.4
20260901233005 84 256 2.0 5.0 0.00 0.00 0.00 68 1014.6
20260901232504 84 271 1.0 3.0 0.00 0.00 0.00 67 1014.7
20260901232005 85 200 1.0 3.0 0.00 0.00 0.00 67 1014.6
20260901231504 85 195 1.0 3.0 0.00 0.00 0.00 67 1014.8
20260901230504 85 277 1.0 4.0 0.00 0.00 0.00 66 1014.9
20260901230005 85 253 2.0 4.0 0.00 0.00 0.00 65 1014.9
20260901225504 85 235 2.0 7.0 0.00 0.00 0.00 65 1014.9
20260901225005 85 237 1.0 7.0 0.00 0.00 0.00 64 1014.8
20260901224005 85 243 2.0 5.0 0.00 0.00 0.00 64 1015.0
20260901223504 85 259 3.0 8.0 0.00 0.00 0.00 64 1015.0